Content
SEND FEEDBACK

Daily
Averages
Monthly
Summary
United States of America

ROCKSPRINGS - NORTHEAST, TEXAS


Home > North America > United States > Texas
Elevation: 2150 feet     Latitude: 30 11N     Longitude: 100 02W

WEATHER
 
SELECT A DAY
Number of Records: 223,806;   Date Range: 11/11/04 - 8/30/14
 
SHARE

PRINT THIS DATA

[ ← Previous Day ]
WEATHER ALMANAC - JANUARY 23, 2013
[ Next Day → ]
[ °C ]   °F
Weather ElementAverageHighLow
Temperature59.8 °F71.6 °F (3:35 pm)51.8 °F (1:35 am)
Dewpoint50.7 °F53.6 °F (9:15 am)44.6 °F (1:55 am)
Humidity73.2 %94 % (7:55 am)50 % (4:15 pm)
Barometer30.28 in30.35 in (10:35 am)30.25 in (3:55 pm)
Wind Speed8.6 mph12.7 mph (11:35 am)
Wind Gust18.4 mph (11:55 am)
Weather ElementAverage
Visibility10 mi
Wind DirectionSSE (164.9 °)

Weather ElementTotal
Precipitation---
Heating Degree Days3.3 (Base 65)
Growing Degree Days11.7 (Base 50)
Averaged from 67 records on January 23, 2013
WEATHER CONDITIONS BREAKOUT
WIND DIRECTION BREAKOUT
WEATHER BY HOUR - JANUARY 23, 2013
[ °C ]   °F
Local TimeTemperatureDewpointHumidityBarometerVisibilityWind DirectionWind SpeedGust SpeedPrecipitationEventsConditions
12:35 AM55.4 °F46.4 °F72 %30.27 in10.0 miSSE (150°)8.1 mphClear
12:55 AM53.6 °F46.4 °F77 %30.27 in10.0 miSSE (150°)9.2 mphClear
1:15 AM53.6 °F46.4 °F77 %30.27 in10.0 miSSE (150°)9.2 mphClear
1:35 AM51.8 °F46.4 °F82 %30.27 in10.0 miSSE (150°)10.4 mphClear
1:55 AM51.8 °F44.6 °F76 %30.27 in10.0 miSSE (150°)11.5 mphClear
2:15 AM51.8 °F44.6 °F76 %30.27 in10.0 miSSE (150°)10.4 mphClear
2:35 AM51.8 °F44.6 °F76 %30.27 in10.0 miSSE (150°)9.2 mphClear
2:55 AM51.8 °F44.6 °F76 %30.27 in10.0 miSSE (150°)10.4 mphClear
3:15 AM51.8 °F44.6 °F76 %30.27 in10.0 miSSE (150°)8.1 mphPartly Cloudy
3:35 AM51.8 °F46.4 °F82 %30.27 in10.0 miSSE (150°)10.4 mphMostly Cloudy
3:55 AM51.8 °F46.4 °F82 %30.26 in10.0 miSSE (160°)10.4 mphScattered Clouds
4:15 AM51.8 °F46.4 °F82 %30.26 in10.0 miSSE (160°)9.2 mphScattered Clouds
4:35 AM51.8 °F46.4 °F82 %30.26 in10.0 miSSE (160°)8.1 mphMostly Cloudy
4:55 AM51.8 °F46.4 °F82 %30.26 in10.0 miSSE (150°)6.9 mphScattered Clouds
5:15 AM51.8 °F46.4 °F82 %30.26 in10.0 miSSE (150°)8.1 mphPartly Cloudy
5:35 AM51.8 °F46.4 °F82 %30.26 in10.0 miSSE (160°)6.9 mphClear
5:55 AM51.8 °F46.4 °F82 %30.26 in10.0 miSSE (160°)6.9 mphClear
6:15 AM51.8 °F46.4 °F82 %30.26 in10.0 miSSE (160°)9.2 mphClear
6:35 AM51.8 °F48.2 °F88 %30.27 in10.0 miSSE (160°)8.1 mphClear
6:55 AM51.8 °F48.2 °F88 %30.28 in10.0 miSSE (160°)6.9 mphPartly Cloudy
7:15 AM51.8 °F48.2 °F88 %30.29 in10.0 miSSE (160°)6.9 mphMostly Cloudy
7:35 AM51.8 °F48.2 °F88 %30.29 in10.0 miSSE (160°)6.9 mphScattered Clouds
7:55 AM51.8 °F50.0 °F94 %30.29 in10.0 miSouth (170°)6.9 mphMostly Cloudy
8:15 AM53.6 °F51.8 °F94 %30.30 in9.0 miSSE (160°)6.9 mphMostly Cloudy
8:35 AM53.6 °F51.8 °F94 %30.30 in10.0 miSSE (160°)9.2 mphPartly Cloudy
8:55 AM55.4 °F51.8 °F88 %30.31 in10.0 miSSE (160°)9.2 mphClear
9:15 AM57.2 °F53.6 °F88 %30.32 in10.0 miSSE (160°)8.1 mphClear
9:35 AM59.0 °F53.6 °F82 %30.32 in10.0 miSouth (170°)10.4 mphClear
9:55 AM60.8 °F53.6 °F77 %30.34 in10.0 miSouth (180°)10.4 mphClear
10:15 AM60.8 °F53.6 °F77 %30.34 in10.0 miSouth (170°)11.5 mphClear
10:35 AM62.6 °F53.6 °F72 %30.35 inSouth (180°)11.5 mphClear
10:55 AM62.6 °F53.6 °F72 %30.35 in10.0 miSSE (160°)10.4 mphClear
11:15 AM64.4 °F53.6 °F68 %30.35 in9.0 miSouth (190°)10.4 mphMostly Cloudy
11:35 AM64.4 °F53.6 °F68 %30.35 in10.0 miSouth (180°)12.7 mphMostly Cloudy
11:55 AM66.2 °F53.6 °F64 %30.34 in10.0 miSouth (180°)9.2 mph18.4 mphPartly Cloudy
12:15 PM64.4 °F53.6 °F68 %30.33 in10.0 miSouth (190°)10.4 mphClear
12:35 PM66.2 °F53.6 °F64 %30.31 in10.0 miSouth (190°)11.5 mphClear
12:55 PM66.2 °F53.6 °F64 %30.30 in10.0 miSouth (190°)11.5 mph16.1 mphClear
1:15 PM66.2 °F53.6 °F64 %30.29 in10.0 miSouth (180°)12.7 mphClear
1:35 PM69.8 °F53.6 °F56 %30.28 in10.0 miSouth (170°)12.7 mphClear
2:15 PM69.8 °F53.6 °F56 %30.27 in10.0 miSouth (190°)9.2 mph16.1 mphClear
2:35 PM69.8 °F53.6 °F56 %30.27 in10.0 miSouth (170°)11.5 mphClear
3:35 PM71.6 °F53.6 °F53 %30.26 in10.0 miSouth (180°)9.2 mphClear
3:55 PM71.6 °F53.6 °F53 %30.25 in10.0 miSouth (180°)9.2 mphClear
4:15 PM71.6 °F51.8 °F50 %30.25 in10.0 miSouth (170°)8.1 mphClear
4:35 PM71.6 °F51.8 °F50 %30.25 in10.0 miSouth (190°)9.2 mphClear
4:55 PM71.6 °F51.8 °F50 %30.25 in10.0 miSouth (180°)8.1 mphClear
5:15 PM71.6 °F51.8 °F50 %30.25 in10.0 miSouth (170°)5.8 mphClear
5:35 PM69.8 °F51.8 °F53 %30.25 in10.0 miSSE (160°)9.2 mphClear
5:55 PM68.0 °F51.8 °F56 %30.25 in10.0 miSSE (160°)6.9 mphClear
6:15 PM66.2 °F51.8 °F60 %30.25 in10.0 miSSE (160°)6.9 mphClear
6:35 PM64.4 °F51.8 °F64 %30.25 in10.0 miSSE (160°)5.8 mphClear
6:55 PM62.6 °F51.8 °F68 %30.25 in10.0 miSSE (160°)6.9 mphClear
7:15 PM60.8 °F51.8 °F72 %30.25 in10.0 miSSE (160°)5.8 mphClear
7:35 PM60.8 °F51.8 °F72 %30.25 in10.0 miSSE (160°)6.9 mphClear
7:55 PM62.6 °F51.8 °F68 %30.26 in10.0 miSSE (160°)5.8 mphClear
8:15 PM60.8 °F51.8 °F72 %30.26 in10.0 miSSE (150°)8.1 mphClear
8:35 PM60.8 °F51.8 °F72 %30.26 in10.0 miSSE (150°)6.9 mphClear
8:55 PM60.8 °F53.6 °F77 %30.27 in10.0 miSSE (160°)5.8 mphClear
9:15 PM60.8 °F53.6 °F77 %30.27 in10.0 miSSE (160°)6.9 mphClear
9:35 PM60.8 °F53.6 °F77 %30.27 in10.0 miSouth (170°)6.9 mphClear
9:55 PM60.8 °F53.6 °F77 %30.27 in10.0 miSouth (170°)6.9 mphClear
10:15 PM60.8 °F53.6 °F77 %30.28 in10.0 miSouth (170°)6.9 mphClear
10:55 PM60.8 °F53.6 °F77 %30.28 in10.0 miSouth (170°)5.8 mphClear
11:15 PM60.8 °F53.6 °F77 %30.28 in10.0 miSouth (170°)6.9 mphClear
11:35 PM60.8 °F53.6 °F77 %30.29 in10.0 miSouth (170°)6.9 mphClear
11:55 PM59.0 °F53.6 °F82 %30.28 in10.0 miSSE (160°)6.9 mphClear
Hourly data recorded from KECU, located miles away from Rocksprings - Northeast, Texas







STORIES FROM OUR PARTNERS